Weather History for Plattsmouth, NE

Change the Weather History Date:

Sunday, December 9, 2012

  Actual Average (KOFF) Record (KOFF)
Temperature  
Mean Temperature 26 °F -  
Max Temperature 37 °F 40 °F 57 °F (2006)
Min Temperature 16 °F 22 °F -5 °F (2005)
Degree Days  
Heating Degree Days 38    
Moisture  
Dew Point 20 °F    
Average Humidity 74    
Maximum Humidity 97    
Minimum Humidity 58    
Precipitation  
Precipitation 0.00 in - - ()
Sea Level Pressure  
Sea Level Pressure 29.96 in    
Wind  
Wind Speed 13 mph (WNW)    
Max Wind Speed 26 mph    
Max Gust Speed 33 mph    
Visibility 8 miles    
Events Rain    
Averages and records for this station are not official NWS values.
T = Trace of Precipitation, MM = Missing Value Source: NWS Daily Summary

Daily Weather History Graph

Daily Weather History Graph

Search for Another Location

Airport:

Trip Planner

Search our weather history database for the weather conditions in past years. The results will help you decide how hot, cold, wet, or windy it might be!

Date:

Astronomy

Dec. 09, 2012 Rise Set
Actual Time 7:37 AM CST 4:55 PM CST
Civil Twilight 7:06 AM CST 5:26 PM CST
Nautical Twilight 6:31 AM CST 6:00 PM CST
Astronomical Twilight 5:58 AM CST 6:34 PM CST
Moon 3:09 AM CST (12/9) 2:04 PM CST (12/9)
Length of Visible Light 10h 20m
Length of Day
9h 18m
Waning Crescent, 18% of the Moon is Illuminated
Dec 9
Waning Crescent
Dec 13
New
Dec 19
First Quarter
Dec 28
Full
Jan 4
Last Quarter

Hourly Weather History & Observations

Time (CST) Temp. Windchill Dew Point Humidity Pressure Visibility Wind Dir Wind Speed Gust Speed Precip Events Conditions
12:15 AM 36.9 °F 30.1 °F 32.9 °F 86% 29.85 in 7.0 mi ESE 9.2 mph - N/A   Overcast
12:35 AM 37.0 °F 31.0 °F 33.1 °F 86% 29.86 in 7.0 mi SE 8.1 mph - N/A   Overcast
12:55 AM 37.4 °F 32.1 °F 33.1 °F 84% 29.86 in 7.0 mi SE 6.9 mph - N/A   Overcast
1:15 AM 37.4 °F 31.4 °F 33.3 °F 85% 29.86 in 7.0 mi SE 8.1 mph - N/A   Overcast
1:35 AM 37.6 °F 31.0 °F 33.4 °F 85% 29.86 in 7.0 mi SE 9.2 mph - N/A   Overcast
1:55 AM 37.8 °F 31.3 °F 33.6 °F 85% 29.87 in 7.0 mi SSE 9.2 mph - N/A   Overcast
2:15 AM 37.8 °F 31.8 °F 33.8 °F 86% 29.87 in 7.0 mi SSE 8.1 mph - N/A   Overcast
2:35 AM 37.4 °F 32.1 °F 34.3 °F 89% 29.87 in 5.0 mi SE 6.9 mph - N/A Rain Light Rain
2:55 AM 37.0 °F 32.4 °F 34.7 °F 91% 29.87 in 5.0 mi SSE 5.8 mph - N/A Rain Rain
3:15 AM 36.9 °F 32.2 °F 34.7 °F 92% 29.84 in 4.0 mi SE 5.8 mph - N/A   Drizzle
3:35 AM 36.7 °F 34.1 °F 34.9 °F 93% 29.85 in 4.0 mi South 3.5 mph - N/A   Overcast
3:55 AM 36.7 °F 32.0 °F 35.1 °F 94% 29.85 in 3.0 mi SE 5.8 mph - N/A   Drizzle
4:15 AM 36.5 °F 32.7 °F 35.1 °F 95% 29.84 in 3.0 mi SE 4.6 mph - N/A   Light Drizzle
4:35 AM 36.5 °F 31.8 °F 35.2 °F 95% 29.82 in 2.5 mi ESE 5.8 mph - N/A Rain Rain
4:55 AM 36.5 °F 31.8 °F 35.6 °F 97% 29.82 in 2.5 mi SE 5.8 mph - N/A   Overcast
5:15 AM 36.5 °F 31.0 °F 35.6 °F 97% 29.84 in 2.5 mi SSE 6.9 mph - N/A Rain Light Rain
5:35 AM 36.5 °F 32.7 °F 35.6 °F 97% 29.85 in 2.5 mi SSE 4.6 mph - N/A Rain Light Rain
5:55 AM 36.5 °F 31.8 °F 35.6 °F 97% 29.86 in 2.5 mi South 5.8 mph - N/A Rain Light Rain
6:15 AM 36.7 °F 32.0 °F 35.8 °F 97% 29.86 in 2.5 mi South 5.8 mph - N/A   Light Drizzle
6:35 AM 37.0 °F 32.4 °F 36.1 °F 97% 29.86 in 3.0 mi SSW 5.8 mph - N/A   Overcast
6:55 AM 37.4 °F 32.1 °F 36.3 °F 96% 29.87 in 4.0 mi SW 6.9 mph - N/A   Overcast
7:15 AM 36.9 °F 31.4 °F 35.6 °F 95% 29.86 in 5.0 mi West 6.9 mph - N/A   Overcast
7:35 AM 36.1 °F 26.5 °F 32.7 °F 87% 29.89 in 10.0 mi WNW 16.1 mph 21.9 mph N/A   Overcast
7:55 AM 34.3 °F 25.0 °F 30.6 °F 86% 29.89 in 10.0 mi WNW 13.8 mph 18.4 mph N/A   Overcast
8:15 AM 34.2 °F 24.4 °F 30.6 °F 87% 29.89 in 10.0 mi WNW 15.0 mph 19.6 mph N/A   Mostly Cloudy
8:35 AM 33.4 °F 21.7 °F 28.9 °F 84% 29.90 in 10.0 mi WNW 20.7 mph 28.8 mph N/A   Mostly Cloudy
8:55 AM 31.3 °F 18.2 °F 25.7 °F 80% 29.91 in 10.0 mi WNW 23.0 mph 27.6 mph N/A   Mostly Cloudy
9:35 AM 27.3 °F 13.3 °F 19.8 °F 73% 29.95 in 10.0 mi WNW 21.9 mph 27.6 mph N/A   Mostly Cloudy
9:55 AM 27.5 °F 13.9 °F 20.1 °F 74% 29.95 in 10.0 mi WNW 20.7 mph 25.3 mph N/A   Mostly Cloudy
10:15 AM 28.0 °F 14.6 °F 19.4 °F 70% 29.95 in 10.0 mi WNW 20.7 mph 28.8 mph N/A   Scattered Clouds
10:35 AM 28.0 °F 14.3 °F 18.9 °F 68% 29.96 in 10.0 mi WNW 21.9 mph 28.8 mph N/A   Clear
10:55 AM 28.2 °F 14.2 °F 18.5 °F 67% 29.97 in 10.0 mi WNW 23.0 mph 27.6 mph N/A   Clear
11:15 AM 28.2 °F 14.8 °F 17.2 °F 63% 29.97 in 10.0 mi WNW 20.7 mph 27.6 mph N/A   Clear
11:35 AM 28.4 °F 15.1 °F 17.2 °F 63% 29.95 in 10.0 mi WNW 20.7 mph 26.5 mph N/A   Clear
11:55 AM 25.7 °F 11.2 °F 14.9 °F 64% 29.94 in 10.0 mi WNW 21.9 mph 28.8 mph N/A   Clear
12:15 PM 26.6 °F 13.4 °F 15.3 °F 62% 29.95 in 10.0 mi WNW 18.4 mph 29.9 mph N/A   Clear
12:35 PM 26.4 °F 12.5 °F 14.5 °F 61% 29.96 in 10.0 mi WNW 20.7 mph 27.6 mph N/A   Clear
12:55 PM 27.9 °F 13.1 °F 15.3 °F 59% 29.96 in 10.0 mi WNW 25.3 mph 33.4 mph N/A   Clear
1:15 PM 27.5 °F 15.0 °F 14.7 °F 59% 29.95 in 10.0 mi WNW 17.3 mph 26.5 mph N/A   Clear
1:35 PM 27.5 °F 13.2 °F 14.5 °F 58% 29.96 in 10.0 mi WNW 23.0 mph 28.8 mph N/A   Scattered Clouds
1:55 PM 26.6 °F 12.7 °F 14.2 °F 60% 29.97 in 10.0 mi WNW 20.7 mph 28.8 mph N/A   Mostly Cloudy
2:15 PM 26.4 °F 10.9 °F 13.5 °F 58% 29.97 in 10.0 mi WNW 26.5 mph 33.4 mph N/A   Overcast
2:35 PM 25.5 °F 11.3 °F 13.1 °F 59% 29.97 in 10.0 mi WNW 20.7 mph 29.9 mph N/A   Overcast
2:55 PM 25.3 °F 11.0 °F 12.6 °F 58% 29.98 in 10.0 mi WNW 20.7 mph 31.1 mph N/A   Overcast
3:15 PM 24.6 °F 10.5 °F 11.8 °F 58% 30.00 in 10.0 mi WNW 19.6 mph 29.9 mph N/A   Overcast
3:35 PM 23.9 °F 8.8 °F 11.1 °F 58% 30.01 in 10.0 mi WNW 21.9 mph 28.8 mph N/A   Overcast
3:55 PM 23.4 °F 10.6 °F 10.9 °F 59% 30.02 in 10.0 mi WNW 15.0 mph 27.6 mph N/A   Overcast
4:15 PM 22.5 °F 7.2 °F 10.9 °F 61% 30.02 in 10.0 mi WNW 20.7 mph 32.2 mph N/A   Overcast
4:35 PM 22.1 °F 7.6 °F 10.4 °F 61% 30.03 in 10.0 mi WNW 18.4 mph 28.8 mph N/A   Overcast
4:55 PM 21.6 °F 6.9 °F 10.4 °F 62% 30.03 in 10.0 mi WNW 18.4 mph 25.3 mph N/A   Overcast
5:15 PM 21.0 °F 6.6 °F 10.4 °F 64% 30.04 in 10.0 mi NW 17.3 mph 26.5 mph N/A   Overcast
5:35 PM 20.3 °F 4.4 °F 9.5 °F 63% 30.04 in 10.0 mi WNW 20.7 mph 28.8 mph N/A   Overcast
5:55 PM 19.8 °F 3.3 °F 9.5 °F 64% 30.06 in 10.0 mi WNW 21.9 mph 29.9 mph N/A   Overcast
6:15 PM 19.4 °F 4.1 °F 10.0 °F 67% 30.06 in 10.0 mi WNW 18.4 mph 27.6 mph N/A   Overcast
6:35 PM 19.0 °F 1.6 °F 8.8 °F 64% 30.06 in 10.0 mi NW 24.2 mph 32.2 mph N/A   Overcast
6:55 PM 18.9 °F 2.9 °F 9.3 °F 66% 30.07 in 10.0 mi NW 19.6 mph 27.6 mph N/A   Overcast
7:15 PM 18.5 °F 1.6 °F 9.5 °F 68% 30.07 in 10.0 mi NW 21.9 mph 31.1 mph N/A   Overcast
7:35 PM 18.9 °F 2.9 °F 9.5 °F 67% 30.07 in 10.0 mi NW 19.6 mph 27.6 mph N/A   Overcast
7:55 PM 18.5 °F 0.9 °F 9.3 °F 67% 30.07 in 10.0 mi NW 24.2 mph 29.9 mph N/A   Overcast
8:15 PM 18.5 °F 1.3 °F 9.5 °F 68% 30.08 in 10.0 mi NW 23.0 mph 28.8 mph N/A   Overcast
8:35 PM 18.0 °F 1.3 °F 8.6 °F 67% 30.09 in 10.0 mi NW 20.7 mph 27.6 mph N/A   Overcast
8:55 PM 17.6 °F 0.9 °F 8.2 °F 67% 30.08 in 10.0 mi NW 20.7 mph 28.8 mph N/A   Overcast
9:15 PM 17.4 °F -0.5 °F 8.2 °F 67% 30.08 in 10.0 mi NW 24.2 mph 33.4 mph N/A   Overcast
9:35 PM 16.7 °F 1.0 °F 8.2 °F 69% 30.09 in 10.0 mi NW 17.3 mph 28.8 mph N/A   Overcast
9:55 PM 16.7 °F 0.1 °F 7.5 °F 67% 30.09 in 10.0 mi NW 19.6 mph 32.2 mph N/A   Overcast
10:15 PM 16.7 °F 0.1 °F 7.7 °F 68% 30.09 in 10.0 mi NW 19.6 mph 28.8 mph N/A   Overcast
10:35 PM 16.7 °F 0.1 °F 7.5 °F 67% 30.09 in 10.0 mi NW 19.6 mph 24.2 mph N/A   Overcast
10:55 PM 16.7 °F 2.6 °F 7.7 °F 68% 30.10 in 10.0 mi NW 13.8 mph - N/A   Overcast
11:15 PM 16.7 °F 2.6 °F 7.7 °F 68% 30.10 in 10.0 mi NW 13.8 mph 20.7 mph N/A   Overcast
11:35 PM 16.7 °F 0.5 °F 7.7 °F 68% 30.09 in 10.0 mi NW 18.4 mph 28.8 mph N/A   Overcast
11:55 PM 16.9 °F 2.3 °F 7.3 °F 66% 30.09 in 10.0 mi NW 15.0 mph - N/A   Overcast